CW9861 Weather Reports


time (UTC)temp
F
wind
direction
speed
knots
gust
knots
rain 1hr
in
rain 24hr
in
rain mn
in
humidity
%
barometer
mb
20260901131959 75 197 1.7 3.5 0.00 0.11 0.00 92 1013.5
20260901131459 74 221 0.9 3.5 0.00 0.11 0.00 92 1013.5
20260901130959 74 199 0.9 5.2 0.00 0.11 0.00 92 1013.5
20260901130459 74 241 0.9 5.2 0.00 0.11 0.00 92 1013.3
20260901130002 73 233 1.7 3.5 0.00 0.11 0.00 92 1013.4
20260901125458 73 225 0.9 2.6 0.00 0.11 0.00 92 1013.5
20260901124959 71 223 0.9 2.6 0.00 0.11 0.00 92 1013.5
20260901124459 70 199 0.9 1.7 0.00 0.11 0.00 92 1013.6
20260901123958 69 276 0.0 0.9 0.00 0.11 0.00 92 1013.4
20260901123459 69 276 0.0 0.9 0.00 0.11 0.00 92 1013.5
20260901122959 68 276 0.0 0.0 0.00 0.11 0.00 91 1013.3
20260901122459 68 276 0.0 0.0 0.00 0.11 0.00 91 1013.5
20260901121959 68 276 0.0 0.0 0.00 0.11 0.00 91 1013.5
20260901121458 68 276 0.0 0.0 0.00 0.11 0.00 91 1013.4
20260901120958 67 276 0.0 0.0 0.00 0.11 0.00 91 1013.3
20260901120459 67 276 0.0 0.0 0.00 0.11 0.00 91 1013.1
20260901120000 67 276 0.0 0.0 0.00 0.11 0.00 91 1013.0
20260901115459 67 276 0.0 0.0 0.00 0.11 0.00 91 1013.0
20260901114959 67 276 0.0 0.0 0.00 0.11 0.00 91 1013.0
20260901114459 67 276 0.0 0.0 0.00 0.11 0.00 91 1012.9
20260901113958 67 276 0.0 0.0 0.00 0.11 0.00 91 1012.8
20260901113500 67 276 0.0 0.0 0.00 0.11 0.00 91 1012.7
20260901112958 67 276 0.0 0.0 0.00 0.11 0.00 91 1012.6
20260901112459 67 276 0.0 0.0 0.00 0.11 0.00 91 1012.7
20260901111959 67 276 0.0 0.0 0.00 0.11 0.00 91 1012.6
20260901111459 67 276 0.0 0.0 0.00 0.11 0.00 91 1012.6
20260901110959 67 276 0.0 0.0 0.00 0.11 0.00 91 1012.6
20260901110459 68 276 0.0 0.0 0.00 0.11 0.00 90 1012.6
20260901105959 68 276 0.0 0.0 0.00 0.11 0.00 90 1012.5
20260901105459 68 276 0.0 0.0 0.00 0.11 0.00 90 1012.5
20260901104959 68 276 0.0 0.0 0.00 0.11 0.00 90 1012.5
20260901104458 68 276 0.0 0.0 0.00 0.11 0.00 90 1012.4
20260901103958 68 276 0.0 0.0 0.00 0.11 0.00 90 1012.4
20260901103459 68 276 0.0 0.0 0.00 0.11 0.00 90 1012.4
20260901102959 68 276 0.0 0.0 0.00 0.11 0.00 90 1012.5
20260901102458 68 276 0.0 0.0 0.00 0.11 0.00 90 1012.5
20260901101959 68 276 0.0 0.0 0.00 0.11 0.00 90 1012.5
20260901101458 68 276 0.0 0.9 0.00 0.11 0.00 90 1012.5
20260901100959 69 276 0.0 0.9 0.00 0.11 0.00 91 1012.5
20260901100458 69 276 0.0 0.0 0.00 0.11 0.00 90 1012.5
20260901100001 69 276 0.0 0.0 0.00 0.11 0.00 90 1012.5
20260901095459 69 276 0.0 0.0 0.00 0.11 0.00 90 1012.5
20260901094959 69 276 0.0 0.0 0.00 0.11 0.00 90 1012.4
20260901094459 69 276 0.0 0.0 0.00 0.11 0.00 90 1012.3
20260901093959 69 276 0.0 0.0 0.00 0.11 0.00 90 1012.4
20260901093459 69 276 0.0 0.0 0.00 0.11 0.00 90 1012.4
20260901092959 69 276 0.0 0.0 0.00 0.11 0.00 90 1012.4
20260901092458 69 276 0.0 0.0 0.00 0.11 0.00 90 1012.4
20260901091958 69 276 0.0 0.0 0.00 0.11 0.00 90 1012.4
20260901091458 69 276 0.0 0.0 0.00 0.11 0.00 90 1012.4
20260901090958 70 276 0.0 0.0 0.00 0.11 0.00 90 1012.4
20260901090459 70 276 0.0 0.0 0.00 0.11 0.00 90 1012.4
20260901090000 70 276 0.0 0.0 0.00 0.11 0.00 90 1012.4
20260901085459 70 276 0.0 0.0 0.00 0.11 0.00 90 1012.4
20260901084959 70 276 0.0 0.0 0.00 0.11 0.00 90 1012.4
20260901084458 70 276 0.0 0.0 0.00 0.11 0.00 90 1012.3
20260901083959 70 276 0.0 0.0 0.00 0.11 0.00 90 1012.4
20260901083458 70 276 0.0 0.0 0.00 0.11 0.00 90 1012.4
20260901082959 70 276 0.0 0.0 0.00 0.11 0.00 90 1012.4
20260901082458 70 276 0.0 0.0 0.00 0.11 0.00 90 1012.4
20260901081958 70 276 0.0 0.0 0.00 0.11 0.00 90 1012.4
20260901081458 70 276 0.0 0.0 0.00 0.11 0.00 90 1012.5
20260901080958 70 276 0.0 0.0 0.00 0.11 0.00 90 1012.3
20260901080458 70 276 0.0 0.0 0.00 0.11 0.00 90 1012.3
20260901075958 70 276 0.0 0.0 0.00 0.11 0.00 90 1012.3
20260901075459 70 276 0.0 0.0 0.00 0.11 0.00 90 1012.3
20260901074958 70 276 0.0 0.0 0.00 0.11 0.00 89 1012.2
20260901063958 70 303 0.0 0.0 0.00 0.11 0.00 88 1012.1
20260901063458 70 303 0.0 0.0 0.00 0.11 0.00 88 1012.3
20260901062958 71 303 0.0 0.0 0.00 0.11 0.00 88 1012.2
20260901062458 71 303 0.0 0.0 0.00 0.11 0.00 88 1012.2
20260901061958 71 303 0.0 0.0 0.00 0.11 0.00 88 1012.2
20260901061458 71 303 0.0 0.0 0.00 0.11 0.00 88 1012.2
20260901060959 71 303 0.0 0.0 0.00 0.11 0.00 88 1012.2
20260901053459 72 303 0.0 0.9 0.00 0.11 0.00 88 1012.5
20260901052958 72 320 0.0 0.0 0.00 0.11 0.00 88 1012.5
20260901052459 72 320 0.0 1.7 0.00 0.11 0.00 88 1012.5
20260901052000 72 320 0.0 1.7 0.00 0.11 0.00 88 1012.4
20260901051458 72 299 0.0 0.9 0.00 0.11 0.00 87 1012.5
20260901050958 72 299 0.0 0.9 0.00 0.11 0.00 87 1012.4
20260901050458 72 299 0.0 0.9 0.00 0.11 0.00 87 1012.4
20260901045959 72 299 0.0 0.9 0.00 0.11 0.00 86 1012.4
20260901045459 72 299 0.0 0.0 0.00 0.11 0.00 86 1012.5
20260901044958 73 299 0.0 0.0 0.00 0.11 0.00 86 1012.5
20260901044459 73 299 0.0 0.0 0.00 0.11 0.00 86 1012.4
20260901043959 73 299 0.0 0.0 0.00 0.11 0.00 86 1012.4
20260901043458 73 299 0.0 0.0 0.00 0.11 0.00 86 1012.4
20260901042959 73 299 0.0 0.0 0.00 0.11 0.00 86 1012.4
20260901042459 73 299 0.0 0.0 0.00 0.11 0.00 86 1012.4
20260901041958 74 299 0.0 0.0 0.00 0.11 0.00 86 1012.5
20260901041459 74 299 0.0 0.0 0.00 0.11 0.00 86 1012.5
20260901040959 74 299 0.0 0.9 0.00 0.11 0.00 86 1012.5
20260901040459 74 299 0.0 0.9 0.00 0.11 0.00 86 1012.6
20260901040005 74 299 0.0 0.0 0.00 0.11 0.00 86 1012.6
20260901035459 74 299 0.0 0.0 0.00 0.11 0.11 86 1012.7
20260901035000 75 299 0.0 0.0 0.00 0.11 0.11 86 1012.5
20260901034459 75 299 0.0 0.9 0.00 0.11 0.11 86 1012.6
20260901034000 75 349 0.0 0.9 0.00 0.11 0.11 86 1012.7
20260901033459 75 349 0.0 0.9 0.00 0.11 0.11 86 1012.6
20260901032959 75 349 0.0 1.7 0.00 0.11 0.11 86 1012.6
20260901032459 75 221 0.0 1.7 0.00 0.11 0.11 85 1012.4
20260901031959 75 228 0.0 0.9 0.00 0.11 0.11 85 1012.5
20260901031459 76 227 0.0 0.9 0.00 0.11 0.11 85 1012.5
20260901031000 76 226 0.0 1.7 0.00 0.11 0.11 85 1012.7
20260901030500 76 232 0.0 1.7 0.00 0.11 0.11 85 1012.6
20260901030000 76 290 0.0 1.7 0.00 0.11 0.11 85 1012.6
20260901025500 76 307 0.0 0.9 0.00 0.11 0.11 85 1012.7
20260901021959 76 286 2.6 7.8 0.00 0.11 0.11 85 1012.3
20260901021459 76 242 0.0 3.5 0.00 0.11 0.11 85 1012.4
20260901020959 76 243 0.0 2.6 0.00 0.11 0.11 84 1012.6
20260901020459 76 207 0.9 2.6 0.00 0.11 0.11 84 1012.5
20260901015959 77 280 0.0 0.9 0.00 0.11 0.11 84 1012.5
20260901015459 77 327 0.0 0.9 0.00 0.11 0.11 84 1012.4
20260901014959 77 226 0.0 0.9 0.00 0.11 0.11 84 1012.4
20260901014459 77 225 0.0 0.9 0.00 0.11 0.11 84 1012.4
20260901014000 77 245 0.0 0.9 0.00 0.11 0.11 84 1012.5
20260901013459 77 245 0.0 1.7 0.00 0.11 0.11 84 1012.3
20260901012959 77 245 0.0 2.6 0.00 0.11 0.11 84 1012.4
20260901012459 77 288 0.9 2.6 0.00 0.11 0.11 84 1012.4
20260901011958 77 313 0.9 2.6 0.00 0.11 0.11 83 1012.4
20260901011459 77 234 0.9 2.6 0.00 0.11 0.11 83 1012.3
20260901010959 77 262 0.0 2.6 0.00 0.11 0.11 83 1012.3
20260901010459 78 296 1.7 3.5 0.00 0.11 0.11 83 1012.1
20260901010000 78 201 0.9 3.5 0.00 0.11 0.11 83 1012.2
20260901005459 78 209 0.0 2.6 0.00 0.11 0.11 83 1012.2
20260901004959 78 192 0.9 2.6 0.00 0.11 0.11 83 1012.2
20260901004459 78 238 0.9 3.5 0.00 0.11 0.11 83 1012.3
20260901003959 78 200 1.7 3.5 0.00 0.11 0.11 83 1012.3
20260901003459 78 296 0.0 4.3 0.00 0.11 0.11 83 1012.3
20260901002959 78 251 1.7 2.6 0.00 0.11 0.11 83 1012.3
20260901002459 78 266 0.9 3.5 0.00 0.11 0.11 83 1012.3
20260901001959 78 241 1.7 3.5 0.00 0.11 0.11 83 1012.3
20260901001459 78 212 0.9 4.3 0.00 0.11 0.11 83 1012.2
20260901001000 78 343 1.7 5.2 0.00 0.11 0.11 83 1012.1
20260901000459 78 219 0.9 2.6 0.00 0.11 0.11 83 1012.1
20260901000001 78 230 0.9 4.3 0.00 0.11 0.11 83 1012.0
20260831235500 78 197 1.7 4.3 0.00 0.11 0.11 84 1011.9
20260831235000 78 207 0.9 3.5 0.00 0.11 0.11 84 1011.8
20260831234501 78 213 0.9 2.6 0.00 0.11 0.11 84 1011.9
20260831234000 79 180 0.0 2.6 0.00 0.11 0.11 84 1011.9
20260831233504 79 244 0.0 0.9 0.00 0.11 0.11 84 1011.9
20260831233000 79 222 0.0 0.9 0.00 0.11 0.11 84 1011.8
20260831232500 79 222 0.0 0.0 0.00 0.11 0.11 84 1011.8
20260831231959 79 222 0.0 2.6 0.00 0.11 0.11 84 1011.9
20260831231500 79 222 0.0 2.6 0.00 0.11 0.11 83 1012.0
20260831231000 79 185 0.0 2.6 0.00 0.11 0.11 83 1012.0
20260831230501 79 205 0.9 2.6 0.00 0.11 0.11 83 1011.9
20260831225959 79 232 0.0 2.6 0.00 0.11 0.11 83 1011.9
20260831225459 79 234 0.9 2.6 0.00 0.11 0.11 83 1011.8
20260831224959 80 174 0.0 2.6 0.00 0.11 0.11 82 1011.7
20260831224459 80 196 0.9 3.5 0.00 0.11 0.11 82 1011.8
20260831224000 80 276 0.0 5.2 0.00 0.11 0.11 82 1011.6
20260831223459 80 192 0.9 3.5 0.00 0.11 0.11 81 1011.6
20260831215459 82 260 2.6 10.4 0.00 0.11 0.11 75 1011.7
20260831214959 82 205 1.7 7.0 0.00 0.11 0.11 75 1011.8
20260831214458 82 203 1.7 7.0 0.00 0.11 0.11 76 1011.7
20260831213959 82 184 4.3 7.8 0.00 0.11 0.11 74 1011.7
20260831213500 82 159 0.9 7.0 0.00 0.11 0.11 78 1011.8
20260831212959 82 30 0.9 7.0 0.00 0.11 0.11 75 1011.8
20260831212459 82 297 1.7 6.1 0.00 0.11 0.11 75 1011.7
20260831211802 82 176 2.6 8.7 0.00 0.11 0.11 74 1011.7
20260831211303 82 196 1.7 7.0 0.00 0.11 0.11 75 1011.7
20260831210803 82 151 2.6 9.6 0.00 0.11 0.11 74 1011.7
20260831210302 82 228 3.5 9.6 0.00 0.11 0.11 73 1011.7
20260831205802 82 187 2.6 7.8 0.00 0.11 0.11 74 1011.8
20260831205305 82 207 2.6 8.7 0.00 0.11 0.11 73 1011.8
20260831195306 80 212 1.7 11.3 0.00 0.11 0.11 79 1012.1
20260831194804 80 186 3.5 11.3 0.00 0.11 0.11 76 1012.0
20260831194303 81 97 2.6 5.2 0.00 0.11 0.11 78 1012.1
20260831193804 81 257 0.9 7.0 0.00 0.11 0.11 76 1012.2
20260831193304 80 173 1.7 7.8 0.00 0.11 0.11 79 1012.3
20260831192804 78 284 3.5 7.8 0.00 0.11 0.11 82 1012.3
20260831192305 77 155 1.7 5.2 0.00 0.11 0.11 84 1012.4
20260831191803 76 224 1.7 5.2 0.00 0.11 0.11 84 1012.4
20260831191303 76 228 1.7 8.7 0.00 0.11 0.11 84 1012.5
20260831190803 75 236 1.7 6.1 0.00 0.11 0.11 85 1013.0
20260831190304 75 223 1.7 7.0 0.00 0.11 0.11 85 1013.0
20260831185802 75 182 1.7 7.0 0.00 0.11 0.11 85 1013.0
20260831185301 75 192 0.9 2.6 0.00 0.11 0.11 85 1013.1
20260831184802 76 105 0.0 1.7 0.00 0.11 0.11 84 1013.3
20260831184302 76 155 0.0 2.6 0.00 0.11 0.11 84 1013.4
20260831183802 76 221 0.0 2.6 0.00 0.11 0.11 84 1013.3
20260831183302 76 181 0.0 2.6 0.00 0.11 0.11 84 1012.9
20260831182803 76 217 0.9 4.3 0.00 0.11 0.11 84 1012.9
20260831182305 76 178 0.9 1.7 0.00 0.11 0.11 84 1013.3
20260831181802 77 157 0.9 2.6 0.00 0.11 0.11 84 1013.4
20260831181302 77 170 0.9 2.6 0.00 0.11 0.11 83 1013.8
20260831173303 79 147 1.7 6.1 0.00 0.11 0.11 83 1013.4
20260831172803 79 253 1.7 6.1 0.00 0.11 0.11 82 1013.3
20260831172306 78 192 1.7 5.2 0.00 0.11 0.11 82 1013.4
20260831171802 78 172 1.7 6.1 0.00 0.11 0.11 83 1013.3
20260831171303 78 266 1.7 6.1 0.00 0.11 0.11 84 1013.3
20260831170803 77 205 2.6 6.1 0.00 0.11 0.11 83 1013.4
20260831170304 78 130 0.9 7.0 0.00 0.11 0.11 84 1013.4
20260831165802 78 226 1.7 6.1 0.00 0.11 0.11 82 1013.4
20260831165305 78 139 2.6 6.1 0.00 0.11 0.11 83 1013.6
20260831164803 78 224 2.6 7.0 0.00 0.11 0.11 86 1014.0
20260831164302 77 219 0.9 5.2 0.00 0.11 0.11 86 1014.0
20260831163802 77 242 1.7 5.2 0.00 0.11 0.11 85 1014.0
20260831163302 76 187 1.7 4.3 0.00 0.11 0.11 86 1013.8
20260831162803 76 208 1.7 7.0 0.00 0.11 0.11 88 1013.8
20260831162301 75 215 3.5 7.0 0.00 0.11 0.11 88 1013.9
20260831161802 74 200 1.7 7.8 0.00 0.11 0.11 89 1014.0
20260831161302 74 204 1.7 7.8 0.00 0.11 0.11 89 1014.2
20260831160803 74 199 0.9 6.1 0.00 0.11 0.11 90 1014.2
20260831160301 73 179 2.6 6.1 0.00 0.11 0.11 89 1014.3
20260831155803 73 271 0.9 5.2 0.00 0.11 0.11 90 1014.4
20260831155302 73 230 0.9 6.1 0.00 0.11 0.11 90 1014.3
20260831154802 72 225 2.6 6.1 0.00 0.11 0.11 90 1014.2
20260831154303 72 181 0.9 3.5 0.00 0.11 0.11 90 1014.2
20260831153802 72 143 0.9 4.3 0.00 0.11 0.11 91 1014.3
20260831153301 72 182 1.7 4.3 0.00 0.11 0.11 91 1014.4
20260831152801 72 232 0.9 3.5 0.01 0.11 0.11 91 1014.6
20260831152305 72 216 0.9 2.6 0.08 0.11 0.11 91 1014.3
20260831151802 72 175 0.9 2.6 0.08 0.11 0.11 91 1014.5
20260831143801 71 67 0.0 2.6 0.10 0.11 0.11 91 1015.1
20260831143301 71 67 0.9 2.6 0.10 0.11 0.11 91 1014.9
20260831142802 71 59 0.0 1.7 0.10 0.10 0.10 91 1014.6
20260831142305 71 59 0.0 0.0 0.03 0.03 0.03 91 1014.8
20260831141802 71 59 0.0 2.6 0.03 0.03 0.03 91 1015.0
20260831141302 71 46 1.7 2.6 0.03 0.03 0.03 91 1014.7
20260831140801 71 271 0.0 0.9 0.03 0.03 0.03 91 1014.6
20260831140302 71 271 0.0 0.0 0.02 0.03 0.02 91 1014.8
20260831135802 71 271 0.0 0.0 0.02 0.03 0.02 91 1014.8
20260831135302 71 271 0.0 0.0 0.02 0.03 0.02 90 1014.8
20260831134802 71 271 0.0 0.0 0.02 0.03 0.02 91 1014.8
20260831134302 71 271 0.0 0.0 0.02 0.03 0.02 91 1015.1
20260831133802 71 271 0.0 0.0 0.01 0.02 0.01 91 1015.2
20260831133302 71 271 0.0 0.0 0.01 0.02 0.01 91 1015.4
20260831132801 71 271 0.0 0.0 0.00 0.01 0.00 91 1015.4
20260831132306 71 271 0.0 0.0 0.00 0.01 0.00 91 1015.4